CST,Max TemperatureF,Mean TemperatureF,Min TemperatureF,Max Dew PointF,MeanDew PointF,Min DewpointF,Max Humidity, Mean Humidity, Min Humidity, Max Sea Level PressureIn, Mean Sea Level PressureIn, Min Sea Level PressureIn, Max VisibilityMiles, Mean VisibilityMiles, Min VisibilityMiles, Max Wind SpeedMPH, Mean Wind SpeedMPH, Max Gust SpeedMPH,PrecipitationIn, CloudCover, Events, WindDirDegrees
2014-1-1,23,20,17,21,19,14,100,91,86,30.26,30.18,30.10,10,8,2,17,12,18,0.00,8,Snow,50
2014-1-2,19,11,3,14,12,0,93,84,63,30.38,30.17,30.03,10,5,1,20,11,25,0.00,8,Snow,3
2014-1-3,19,3,-13,12,1,-18,92,79,68,30.46,30.31,30.02,10,10,3,20,6,26,0.00,1,,174
2014-1-4,32,26,19,28,22,12,87,79,68,30.01,29.96,29.91,10,10,7,23,16,31,0.00,3,,195
2014-1-5,32,21,10,32,27,7,100,96,85,29.98,29.88,29.74,10,3,0,24,7,38,0.03,8,Snow,352
2014-1-6,-5,-9,-13,-11,-17,-20,77,72,64,30.30,30.24,30.11,10,6,1,25,20,32,0.00,4,,256
2014-1-7,10,0,-9,3,-6,-15,79,73,65,30.37,30.30,30.27,10,10,5,18,13,24,0.00,3,,209
2014-1-8,17,10,3,10,6,0,92,82,73,30.49,30.39,30.27,10,10,10,7,3,,0.00,4,,266
2014-1-9,32,20,8,32,19,5,100,90,79,30.51,30.37,30.17,10,7,1,12,5,,0.00,7,Snow,107
2014-1-10,41,36,32,41,35,32,100,99,93,30.17,29.91,29.56,10,4,1,21,10,29,0.23,8,Rain,160
2014-1-11,41,36,32,41,34,30,100,96,93,29.81,29.58,29.44,10,5,0,22,13,28,0.00,8,Fog-Rain-Snow,244
2014-1-12,42,36,30,34,31,28,100,84,66,29.95,29.82,29.67,10,9,5,26,14,34,0.00,4,,191
2014-1-13,46,38,30,39,34,28,100,79,66,29.80,29.66,29.59,10,10,10,22,17,30,0.00,1,,228
2014-1-14,35,30,26,34,27,19,100,86,69,29.90,29.79,29.68,10,9,0,28,11,38,0.00,5,Snow,225
2014-1-15,26,22,19,19,15,14,86,78,68,30.09,30.02,29.91,10,10,2,21,13,25,0.00,6,Snow,253
2014-1-16,32,26,21,32,23,16,100,84,64,29.93,29.69,29.57,10,8,1,24,16,31,0.00,7,Snow,205
2014-1-17,24,19,14,19,12,9,86,83,73,29.99,29.88,29.70,10,7,2,17,10,22,0.00,8,Snow,254
2014-1-18,21,14,8,21,14,7,100,91,79,29.97,29.85,29.73,10,7,0,15,10,17,0.00,6,Fog-Snow,153
2014-1-19,35,20,6,30,20,3,100,90,80,29.90,29.76,29.58,10,7,0,26,12,37,0.00,1,Snow,221
2014-1-20,35,29,23,32,29,19,100,90,74,29.94,29.84,29.59,10,9,2,18,9,25,0.00,6,Snow,290
2014-1-21,21,11,0,19,4,-6,93,73,57,30.24,30.17,29.95,10,9,2,25,13,31,0.00,2,Snow,310
2014-1-22,17,8,-2,16,3,-6,93,80,61,30.20,30.05,29.92,10,8,2,26,9,33,0.00,5,Snow,226
2014-1-23,8,2,-4,0,-6,-9,85,70,61,30.60,30.45,30.17,10,10,10,18,13,25,0.00,0,,271
2014-1-24,23,10,-4,23,5,-9,100,75,58,30.57,30.11,29.57,10,6,1,32,17,43,0.00,3,Snow,208
2014-1-25,32,19,6,32,11,-4,100,68,42,29.89,29.65,29.44,10,8,2,28,20,40,0.00,3,Snow,263
2014-1-26,33,20,6,32,17,0,100,83,58,29.85,29.58,29.45,10,7,1,32,12,45,0.01,7,Snow,220
2014-1-27,8,-2,-13,5,-8,-18,85,70,51,30.44,30.24,29.84,10,8,1,29,19,38,0.00,2,Snow,267
2014-1-28,5,-4,-13,-4,-10,-17,85,72,60,30.45,30.38,30.26,10,10,10,15,8,20,0.00,0,,240
2014-1-29,24,12,0,9,2,-6,85,61,43,30.26,30.20,30.09,10,10,10,18,10,23,0.00,0,,214
2014-1-30,33,26,19,28,15,5,93,61,51,30.09,29.91,29.71,10,9,2,34,19,41,0.00,4,Snow,194
2014-1-31,32,26,21,28,22,19,100,89,80,30.16,30.08,29.91,10,6,1,14,7,22,0.02,7,Snow,303